User: anonymous   Login
Location: Beccas
(43.4309°N, 0.1528°E)
Time: 12:02:51
(UTC+00:00)
Language:

Cosmos 1703 - Orbit

View from above orbital plane
View from above orbital plane
View from above satellite
View from above satellite

Ground track
Ground track

The orbit data is extracted from the following two-line orbital elements,

1 16262U 85108A   22272.61977015  .00004218  00000-0  23282-3 0  9995
2 16262  82.4771 150.9409 0012592 109.7267 250.5323 15.13625669 10125
Epoch (UTC): 29 September 2022 14:52:28
Eccentricity: 0.0012592
inclination: 82.4771°
perigee height: 516 km
apogee height: 534 km
right ascension of ascending node: 150.9409°
argument of perigee: 109.7267°
revolutions per day: 15.13625669
mean anomaly at epoch: 250.5323°
orbit number at epoch: 1012

The dashed part of the orbit path shows where the satellite is in the earth's shadow,  

DLR